Weather History for Ogallala, NE

Change the Weather History Date:

Sunday, December 9, 2012

  Actual Average Record
Temperature  
Mean Temperature 11 °F -  
Max Temperature 25 °F 41 °F 68 °F (1957)
Min Temperature -3 °F 14 °F -14 °F (1978)
Degree Days  
Heating Degree Days 54    
Moisture  
Dew Point 2 °F    
Average Humidity 59    
Maximum Humidity 77    
Minimum Humidity 41    
Precipitation  
Precipitation 0.00 in - - ()
Sea Level Pressure  
Sea Level Pressure 30.12 in    
Wind  
Wind Speed 19 mph (NW)    
Max Wind Speed 36 mph    
Max Gust Speed 44 mph    
Visibility 10 miles    
Events      
Averages and records for this station are not official NWS values.
T = Trace of Precipitation, MM = Missing Value Source: NWS Daily Summary

Daily Weather History Graph

Daily Weather History Graph

Search for Another Location

Airport:

Trip Planner

Search our weather history database for the weather conditions in past years. The results will help you decide how hot, cold, wet, or windy it might be!

Date:

Astronomy

Dec. 09, 2012 Rise Set
Actual Time 7:01 AM MST 4:18 PM MST
Civil Twilight 6:29 AM MST 4:49 PM MST
Nautical Twilight 5:55 AM MST 5:23 PM MST
Astronomical Twilight 5:22 AM MST 5:57 PM MST
Moon 2:34 AM MST (12/9) 1:27 PM MST (12/9)
Length of Visible Light 10h 19m
Length of Day
9h 17m
Waning Crescent, 18% of the Moon is Illuminated
Dec 9
Waning Crescent
Dec 13
New
Dec 19
First Quarter
Dec 28
Full
Jan 4
Last Quarter

Hourly Weather History & Observations

Time (MST) Temp. Windchill Dew Point Humidity Pressure Visibility Wind Dir Wind Speed Gust Speed Precip Events Conditions
12:15 AM 25.7 °F 10.5 °F 12.2 °F 57% 29.91 in 10.0 mi NW 24.2 mph 31.1 mph N/A   Scattered Clouds
12:35 AM 25.3 °F 11.0 °F 11.3 °F 55% 29.92 in 10.0 mi NW 20.7 mph 28.8 mph N/A   Scattered Clouds
12:55 AM 24.4 °F 11.0 °F 10.9 °F 57% 29.92 in 10.0 mi NW 17.3 mph 27.6 mph N/A   Clear
1:15 AM 23.9 °F 8.8 °F 10.9 °F 58% 29.92 in 10.0 mi NW 21.9 mph 26.5 mph N/A   Clear
1:35 AM 23.2 °F 9.8 °F 10.9 °F 60% 29.95 in 10.0 mi WNW 16.1 mph 20.7 mph N/A   Clear
1:55 AM 22.8 °F 10.9 °F 10.8 °F 60% 29.94 in 10.0 mi NW 12.7 mph - N/A   Scattered Clouds
2:15 AM 21.7 °F 9.0 °F 10.4 °F 62% 29.97 in 10.0 mi WNW 13.8 mph 17.3 mph N/A   Scattered Clouds
2:35 AM 21.7 °F 7.5 °F 9.5 °F 59% 29.96 in 10.0 mi NW 17.3 mph 26.5 mph N/A   Mostly Cloudy
2:55 AM 20.1 °F 3.8 °F 6.8 °F 56% 29.96 in 10.0 mi NNW 21.9 mph 33.4 mph N/A   Scattered Clouds
3:15 AM 19.4 °F 2.8 °F 6.4 °F 57% 29.99 in 10.0 mi NW 21.9 mph 28.8 mph N/A   Scattered Clouds
3:35 AM 19.2 °F 6.4 °F 6.6 °F 58% 30.00 in 10.0 mi NW 12.7 mph 26.5 mph N/A   Mostly Cloudy
3:55 AM 19.2 °F 4.3 °F 7.7 °F 61% 30.00 in 10.0 mi NW 17.3 mph 23.0 mph N/A   Overcast
4:15 AM 18.9 °F 3.3 °F 7.7 °F 62% 30.00 in 10.0 mi NNW 18.4 mph 26.5 mph N/A   Overcast
4:35 AM 18.9 °F 5.9 °F 8.1 °F 63% 30.02 in 10.0 mi NNW 12.7 mph 21.9 mph N/A   Overcast
4:55 AM 18.5 °F 3.8 °F 7.7 °F 63% 30.03 in 10.0 mi NNW 16.1 mph 25.3 mph N/A   Overcast
5:15 AM 18.3 °F 2.2 °F 8.1 °F 64% 30.02 in 10.0 mi NNW 19.6 mph 24.2 mph N/A   Overcast
5:35 AM 17.6 °F 0.9 °F 7.5 °F 65% 30.04 in 10.0 mi NNW 20.7 mph 27.6 mph N/A   Overcast
5:55 AM 16.7 °F -1.5 °F 6.8 °F 65% 30.06 in 10.0 mi NNW 24.2 mph 27.6 mph N/A   Overcast
6:15 AM 16.5 °F -1.0 °F 6.4 °F 65% 30.07 in 10.0 mi NNW 21.9 mph 27.6 mph N/A   Overcast
6:35 AM 15.6 °F -1.3 °F 6.3 °F 67% 30.08 in 10.0 mi NNW 19.6 mph 24.2 mph N/A   Mostly Cloudy
6:55 AM 14.4 °F -3.4 °F 5.9 °F 69% 30.09 in 10.0 mi NNW 20.7 mph 26.5 mph N/A   Scattered Clouds
7:15 AM 13.5 °F -5.0 °F 5.0 °F 69% 30.11 in 10.0 mi NNW 21.9 mph 28.8 mph N/A   Scattered Clouds
7:35 AM 13.1 °F -3.1 °F 4.6 °F 69% 30.13 in 10.0 mi NNW 16.1 mph 28.8 mph N/A   Clear
7:55 AM 13.6 °F -4.4 °F 3.6 °F 64% 30.14 in 10.0 mi NW 20.7 mph 29.9 mph N/A   Scattered Clouds
8:15 AM 13.8 °F -4.9 °F 3.7 °F 64% 30.12 in 10.0 mi NNW 23.0 mph 32.2 mph N/A   Clear
8:35 AM 14.9 °F -4.6 °F 3.9 °F 62% 30.13 in 10.0 mi NNW 26.5 mph 35.7 mph N/A   Clear
8:55 AM 15.6 °F -4.6 °F 3.7 °F 59% 30.14 in 10.0 mi NNW 29.9 mph 36.8 mph N/A   Clear
9:15 AM 16.3 °F -2.7 °F 3.6 °F 57% 30.16 in 10.0 mi NNW 26.5 mph 36.8 mph N/A   Clear
9:35 AM 17.2 °F -2.7 °F 3.7 °F 56% 30.17 in 10.0 mi NNW 31.1 mph 34.5 mph N/A   Clear
9:55 AM 17.6 °F -2.2 °F 2.5 °F 52% 30.18 in 10.0 mi North 31.1 mph 36.8 mph N/A   Clear
10:15 AM 18.9 °F 0.1 °F 2.8 °F 50% 30.18 in 10.0 mi NNW 28.8 mph 34.5 mph N/A   Clear
10:35 AM 19.0 °F 1.0 °F 2.5 °F 49% 30.18 in 10.0 mi NNW 26.5 mph 35.7 mph N/A   Clear
10:55 AM 19.4 °F 0.5 °F 2.7 °F 48% 30.17 in 10.0 mi NNW 29.9 mph 34.5 mph N/A   Clear
11:15 AM 19.9 °F 1.0 °F 2.8 °F 48% 30.16 in 10.0 mi NNW 31.1 mph 38.0 mph N/A   Clear
11:35 AM 20.5 °F 1.2 °F 3.0 °F 47% 30.14 in 10.0 mi NNW 33.4 mph 41.4 mph N/A   Clear
11:55 AM 20.8 °F 1.2 °F 2.7 °F 45% 30.14 in 10.0 mi North 35.7 mph 43.7 mph N/A   Clear
12:15 PM 20.8 °F 1.7 °F 3.0 °F 46% 30.14 in 10.0 mi NNW 33.4 mph 40.3 mph N/A   Clear
12:35 PM 21.7 °F 3.4 °F 3.0 °F 45% 30.14 in 10.0 mi North 31.1 mph 39.1 mph N/A   Clear
12:55 PM 21.0 °F 3.3 °F 2.8 °F 45% 30.14 in 10.0 mi NNW 27.6 mph 38.0 mph N/A   Clear
1:15 PM 20.8 °F 3.1 °F 2.3 °F 45% 30.15 in 10.0 mi North 27.6 mph 35.7 mph N/A   Clear
1:35 PM 20.1 °F 2.1 °F 2.3 °F 46% 30.16 in 10.0 mi NNW 27.6 mph 34.5 mph N/A   Clear
1:55 PM 19.9 °F 2.5 °F 2.1 °F 46% 30.17 in 10.0 mi North 25.3 mph 31.1 mph N/A   Clear
2:15 PM 19.4 °F 1.4 °F 1.2 °F 45% 30.18 in 10.0 mi North 26.5 mph 32.2 mph N/A   Clear
2:35 PM 19.4 °F 1.4 °F -1.1 °F 41% 30.18 in 10.0 mi NNW 26.5 mph - N/A   Clear
2:55 PM 18.5 °F -1.0 °F -1.7 °F 41% 30.19 in 10.0 mi North 31.1 mph 34.5 mph N/A   Clear
3:15 PM 18.1 °F 1.2 °F -1.7 °F 42% 30.20 in 10.0 mi North 21.9 mph - N/A   Scattered Clouds
3:35 PM 17.4 °F -0.2 °F -1.8 °F 43% 30.20 in 10.0 mi North 23.0 mph 33.4 mph N/A   Mostly Cloudy
3:55 PM 16.5 °F -0.1 °F -2.7 °F 43% 30.21 in 10.0 mi North 19.6 mph 26.5 mph N/A   Overcast
4:15 PM 16.0 °F 1.1 °F -2.2 °F 45% 30.22 in 10.0 mi NNW 15.0 mph 26.5 mph N/A   Overcast
4:35 PM 14.9 °F -1.3 °F -1.5 °F 48% 30.23 in 10.0 mi North 17.3 mph 24.2 mph N/A   Mostly Cloudy
4:55 PM 14.0 °F -0.2 °F -0.9 °F 52% 30.23 in 10.0 mi North 12.7 mph 16.1 mph N/A   Scattered Clouds
5:15 PM 13.3 °F 2.0 °F -0.6 °F 54% 30.23 in 10.0 mi North 8.1 mph - N/A   Clear
5:35 PM 13.1 °F 0.9 °F -0.4 °F 55% 30.23 in 10.0 mi NNW 9.2 mph - N/A   Clear
5:55 PM 12.6 °F 3.4 °F -0.4 °F 56% 30.24 in 10.0 mi NNW 5.8 mph - N/A   Clear
6:15 PM 11.3 °F 3.3 °F -0.8 °F 58% 30.24 in 10.0 mi NW 4.6 mph - N/A   Clear
6:35 PM 10.4 °F - -0.9 °F 60% 30.24 in 10.0 mi Calm Calm - N/A   Clear
6:55 PM 6.1 °F -4.3 °F -2.6 °F 68% 30.24 in 10.0 mi West 5.8 mph - N/A   Clear
7:15 PM 7.9 °F -0.7 °F -2.4 °F 63% 30.24 in 10.0 mi West 4.6 mph - N/A   Clear
7:35 PM 4.1 °F -5.1 °F -3.8 °F 70% 30.23 in 10.0 mi West 4.6 mph - N/A   Clear
7:55 PM 5.0 °F -2.1 °F -3.8 °F 67% 30.22 in 10.0 mi NW 3.5 mph - N/A   Clear
8:15 PM 3.0 °F -6.4 °F -4.2 °F 72% 30.21 in 10.0 mi WNW 4.6 mph - N/A   Clear
8:35 PM 1.9 °F -7.6 °F -4.7 °F 74% 30.20 in 10.0 mi WNW 4.6 mph - N/A   Clear
8:55 PM 0.9 °F - -5.1 °F 76% 30.20 in 10.0 mi Calm Calm - N/A   Clear
9:15 PM -0.4 °F -10.4 °F -7.2 °F 73% 30.19 in 10.0 mi WNW 4.6 mph - N/A   Clear
9:35 PM 1.6 °F - -5.3 °F 73% 30.18 in 10.0 mi Calm Calm - N/A   Clear
9:55 PM -1.3 °F - -7.4 °F 75% 30.17 in 10.0 mi Calm Calm - N/A   Clear
10:15 PM -3.8 °F -14.4 °F -10.5 °F 73% 30.16 in 10.0 mi West 4.6 mph - N/A   Clear
10:35 PM -2.0 °F -12.2 °F -8.1 °F 75% 30.15 in 10.0 mi West 4.6 mph - N/A   Clear
10:55 PM -3.8 °F -14.4 °F -9.4 °F 77% 30.14 in 10.0 mi WSW 4.6 mph - N/A   Clear
11:15 PM -2.9 °F -11.2 °F -8.7 °F 76% 30.13 in 10.0 mi WSW 3.5 mph - N/A   Clear
11:35 PM -2.9 °F - -8.7 °F 76% 30.11 in 10.0 mi Calm Calm - N/A   Clear
11:55 PM -3.6 °F -15.9 °F -9.4 °F 76% 30.11 in 10.0 mi WSW 5.8 mph - N/A   Clear